Location: Jalan Sepang
(2.8072°N, 101.8021°E)
Time: 04:42:45
(UTC+00:00)

H-2A R/B - Pass Details

Date: 15 May 2026
Orbit: 549 x 611 km, 98.5° (Epoch: 7 June)

Event Time Altitude Azimuth Distance (km) Brightness Sun altitude
Rises 20:54:44 0° 8° (N) 2,743 5.8 -30.4°
Reaches altitude 10° 20:56:51 10° 6° (N) 1,858 4.8 -30.0°
Enters shadow 20:57:34 15° 4° (N) 1,564 4.4 -29.8°
